Reflectivity
-20 -20 -20 -20 -20 -20 -20 -20 -20 -20 -20 -20 -20 -20 -20 -20 -20 -20 -20 -20 -20 -20 -20 -20 -20 -20 -20 -20 -20 -20 -20 -20 -20 -20 -20 -20 -20 -20 -20 -20 -20 -20 -20 -20 -20
-20 -20 -20 -20 -20 -20 -20 -20 -20 -20 -20 -20 -20 -20 -20 -20 -20 -20 -20 -20 -20 -20 -20 -20 -20 -20 -20 -20 -20 -20 -13 -20 -20 -20 -20 -20 -20 -20 -20 -20 -20 -20 -20 -20 -20
-20 -20 -20 -20 -20 -20 -20 -20 -20 -20 -20 -20 -20 -20 -20 -20 -20 -20 -20 -20 -20 -20 -20 -20 -20 -20 -20 -20 -20 -20 -20 -20 -20 -20 -20 -20 -20 -20 -20 -20 -20 -20 -20 -20 -20
-20 -20 -20 -20 -20 -20 -20 -20 -20 -20 -20 -20 -20 -20 -20 -20 -20 -20 -20 -20 -20 -20 -20 -20 -20 -20 -20 -20 -20 -20 -20 -20 -20 -20 -20 -20 -20 -20 -20 -20 -20 -20 -20 -20 -20
-20 -20 -20 -20 -20 -20 -20 -20 -20 -20 -20 -20 -20 -20 -20 -20 -20 -20 -20 -20 -20 -20 -20 -20 -20 -20 -20 -20 -20 -20 -20 -20 -20 -20 -20 -20 -20 -20 -20 -20 -20 -20 -20 -20 -20
-20 -20 -20 -20 -20 -20 -20 -20 -20 -20 -20 -20 -20 -20 -20 -20 -20 -20 -20 -20 -20 -20 -20 -20 -20 -20 -20 -20 -20 -20 -20 -20 -20 -20 -20 -20 -20 -20 -20 -20 -20 -20 -20 -20 -20
-20 -20 -20 -20 -20 -20 -20 -20 -20 -20 -20 -20 -20 -20 -20 -20 -20 -20 -20 -20 -20 -20 -20 -20 -20 -20 -20 -20 -20 -20 -20 -20 -20 -20 -20 -20 -20 -20 -20 -20 -20 -20 -20 -20 -20
-20 -20 -20 -20 -20 -20 -20 -20 -20 -20 -20 -20 -20 -20 -20 -20 -20 -20 -20 -20 -20 -20 -20 -20 -20 -20 -20 -20 -20 -20 -20 -20 -20 -20 -20 -20 -20 -20 -20 -20 -20 -20 -20 -20 -20
-20 -20 -20 -20 -20 -20 -20 -20 -20 -20 -20 -20 -20 -20 -20 -20 -20 -20 -20 -20 -20 -20 -20 -20 -20 -20 -20 -20 -20 -20 -20 -20 -20 -20 -20 -20 -20 -20 -20 -20 -20 -20 -20 -20 -20
-20 -20 -20 -20 -20 -20 -20 -20 -20 -20 -20 -20 -20 -20 -20 -20 -20 -20 -20 -20 -20 -20 -20 -20 -20 -20 -20 -20 -20 -20 -20 -20 -20 -20 -20 -20 -20 -20 -20 -20 -20 -20 -20 -20 -20
-20 -20 -20 -20 -20 -20 -20 -20 -20 -20 -20 -20 -20 -20 -20 -20 -20 -20 -20 -20 -20 -20 -20 -20 -20 -20 -20 -20 -20 -20 -20 -20 -20 -20 -20 -20 -20 -20 -20 -20 -20 -20 -20 -20 -20
-20 -20 -20 -20 -20 -20 -20 -20 -20 -20 -20 -20 -20 -20 -20 -20 -20 -20 -20 -20 -20 -20 -20 -20 -20 -20 -20 -20 -20 -20 -20 -20 -20 -20 -17 -20 -20 -20 -20 -20 -20 -20 -20 -20 -20
-20 -20 -20 -20 -20 -20 -20 -20 -20 -20 -20 -20 -20 -20 -20 -20 -20 -20 -20 -20 -20 -20 -20 -20 -20 -20 -20 -20 -20 -20 -20 -20 -20 -20 -20 -20 -20 -20 -20 -20 -20 -20 -20 -20 -20
-20 -20 -20 -20 -20 -20 -20 -20 -20 -20 -20 -20 -20 -20 -20 -20 -20 -20 -20 -20 -20 -20 -20 -20 -20 -20 -20 -20 -20 -20 -20 -20 -20 -20 -20 -20 -20 -20 -20 -20 -20 -20 -20 -20 -20
-20 -20 -20 -20 -20 -20 -20 -20 -20 -20 -20 -20 -20 -20 -20 -20 -20 -20 -20 -20 -20 -20 -20 -20 -20 -20 -20 -20 -20 -20 -20 -20 -20 -20 -20 -20 -20 -20 -20 -20 -20 -20 -20 -20 -20
-20 -20 -20 -20 -20 -20 -20 -20 -20 -20 -20 -20 -20 -20 -20 -20 -20 -20 -20 -20 -20 -20 -20 -20 -20 -20 -20 -20 -20 -20 -20 -20 -20 -20 -20 -20 -20 -20 -20 -16 -20 -20 -20 -20 -20
-20 -20 -20 -20 -20 -20 -20 -20 -20 -20 -20 -20 -20 -20 -20 -20 -20 -20 -20 -20 -20 -20 -20 -20 -20 -20 -20 -20 -20 -20 -20 -20 -20 -20 -20 -20 -20 -20 -20 -20 -20 -20 -20 -20 -20
-20 -20 -20 -20 -20 -20 -20 -20 -20 -20 -20 -20 -20 -20 -20 -20 -20 -20 -20 -20 -20 -20 -20 -20 -20 -20 -20 -20 -20 -20 -20 -20 -20 -20 -20 -20 -20 -20 -20 -20 -20 -20 -20 -20 -20
-20 -20 -20 -20 -20 -20 -20 -20 -20 -20 -20 -20 -20 -20 -20 -20 -20 -20 -20 -20 -20 -20 -4 -20 -20 -20 -20 -20 -20 -20 -20 -20 -20 -20 -20 -20 -20 -20 -20 -20 -20 -20 -20 -20 -20
-20 -20 -20 -20 -20 -20 -20 -20 -20 -20 -20 -20 -20 -20 -20 -20 -20 -20 -20 -20 -20 -20 -20 -20 -20 -20 -20 -20 -20 -20 -20 -20 -20 -15 -20 -20 -20 -20 -20 -20 -20 -20 -7 -15 -20
-20 -20 -20 -20 -20 -20 -20 -20 -20 -20 -20 -20 -20 -20 -20 -20 -20 -20 -20 -20 -20 -20 -20 -20 -20 -20 -20 -20 -20 -20 -20 -20 -12 -2 8 -8 -15 -20 -8 -7 7 -18 -15 -3 10
-20 -20 -20 -20 -20 -20 -20 -20 -20 -20 -20 -20 -20 -20 -20 -20 -20 -20 -20 -20 -20 -20 -20 -20 -8 -20 -20 -20 -20 -0 -20 -7 -4 1 6 2 -7 4 8 14 17 3 2 9 13
-20 -20 -20 -20 -20 -20 -20 -20 -20 -20 -20 -20 -20 -20 -20 -20 -20 -20 -20 -20 -20 -20 -20 -20 -20 -18 -20 -20 -20 -20 -20 -14 0 1 9 9 -20 4 -13 15 12 15 19 16 19
-20 -20 -20 -20 -20 -20 -20 -20 -20 -20 -20 -20 -20 -20 -20 -20 -20 -20 -20 -20 -20 -20 -11 -20 -20 -20 -20 -20 -20 -9 -20 -19 6 3 5 6 1 -20 1 0 -2 16 13 27 22
-20 -20 -20 -20 -20 -20 -20 -20 -20 -20 -20 -20 -20 -20 -20 -20 -20 -20 -20 -20 -20 -20 -20 -20 -20 -20 -20 -20 -20 -20 -20 -3 -1 -19 4 -20 3 17 19 17 11 21 26 25 29
-20 -20 -20 -20 -20 -20 -20 -20 -20 -20 -20 -20 -20 -20 -20 -20 -20 -20 -20 -20 -20 -20 -20 -20 -20 -20 -20 -20 -20 -20 -20 -20 -19 -6 -20 -19 -11 15 18 13 12 20 21 25 26
-20 -20 -20 -20 -20 -20 -20 -20 -20 -20 -20 -20 -20 -20 -20 -20 -20 -20 -20 -20 -20 -20 -20 -20 -20 -20 -20 -20 -20 -20 -20 -20 -20 -6 0 15 11 -1 4 6 12 16 22 27 35
Wind_Speed
16 16 17 16 16 17 16 14 12 11 10 7 6 3 5 6 20 21 20 15 18 22 18 9 9 12 5 2 3 1 6 2 3 7 6 14 13 5 9 14 10 6 5 13 17
16 17 17 16 18 18 17 14 12 11 8 7 7 5 4 3 3 18 19 21 21 23 11 10 13 11 5 5 5 1 3 1 4 7 10 13 11 14 10 12 11 21 22 21 21
16 17 18 17 19 19 16 15 11 12 12 10 9 7 5 3 5 7 22 23 22 17 8 7 8 5 4 5 7 7 3 11 9 13 12 12 10 11 15 13 7 22 19 22 22
17 17 18 18 19 18 16 15 13 14 15 13 6 6 8 4 4 5 21 23 20 14 7 7 6 5 5 5 3 4 3 3 5 7 7 11 8 8 5 8 10 14 17 19 19
17 17 18 18 17 16 14 11 12 13 14 14 14 4 5 8 3 7 16 16 9 8 6 5 6 4 4 3 7 3 3 7 10 6 8 8 6 5 13 7 12 15 16 15 15
17 17 17 17 15 16 11 10 9 8 11 11 11 7 7 8 6 8 7 11 8 5 5 5 2 4 0 3 2 4 9 12 9 7 3 8 17 4 3 9 14 18 19 14 15
16 17 17 16 13 16 11 8 7 9 10 9 7 5 9 4 5 8 7 8 6 3 4 3 2 2 2 6 3 6 9 7 6 6 9 11 10 3 7 9 15 14 20 21 16
16 16 17 16 12 15 13 7 7 11 10 8 6 5 4 2 4 8 8 13 12 6 3 6 2 1 3 6 7 5 4 7 6 13 4 3 21 6 11 7 14 16 15 23 18
16 16 17 16 13 16 13 4 6 12 5 8 8 6 4 6 10 7 6 8 8 9 6 4 3 3 6 4 5 5 5 14 11 4 10 3 25 5 15 13 16 16 15 19 22
16 15 16 15 15 18 10 3 7 9 6 2 4 5 5 6 5 6 7 4 5 10 7 9 6 4 5 6 3 12 10 8 21 11 18 17 23 21 18 15 17 16 16 17 23
15 15 15 14 14 16 5 4 6 7 10 6 2 6 5 7 3 8 6 8 6 6 8 5 6 4 6 5 7 7 3 17 21 19 16 20 26 24 20 15 12 9 13 16 21
15 15 15 13 12 14 5 6 2 2 6 4 3 1 5 2 4 9 7 7 7 6 8 6 1 2 9 8 7 7 12 20 17 14 22 22 27 18 11 4 8 12 15 14 19
15 16 16 13 6 8 7 3 3 3 5 2 1 3 7 4 2 8 9 5 5 7 7 2 5 9 13 7 8 9 13 14 25 28 19 5 6 6 4 5 9 12 13 15 16
15 15 18 6 7 0 3 7 4 2 5 8 7 6 8 4 3 4 10 5 8 6 7 4 6 11 10 7 11 13 8 20 25 17 4 5 6 3 7 10 13 14 16 19 18
14 13 16 11 3 4 4 5 3 3 6 8 5 4 10 7 6 12 10 7 3 8 6 8 6 10 3 10 11 7 19 25 17 7 5 5 3 5 5 10 18 19 20 22 18
13 11 13 5 3 1 3 2 3 7 4 5 5 8 8 7 7 7 7 8 2 4 3 7 6 3 1 12 7 12 13 17 3 3 4 5 4 5 3 9 14 18 22 24 26
11 9 5 2 3 2 2 3 6 10 4 9 6 8 5 8 6 10 6 9 7 10 14 10 7 6 4 7 7 7 11 7 9 7 6 3 9 8 2 9 16 21 20 23 24
10 6 4 1 2 2 3 5 13 1 4 3 6 10 5 9 5 11 6 6 4 4 3 6 11 4 7 3 4 5 5 0 8 11 16 21 7 6 1 16 28 27 24 24 25
5 3 2 3 1 3 5 10 3 2 3 6 9 4 5 6 3 8 5 3 4 1 4 5 8 8 14 3 4 5 6 5 6 8 5 5 8 4 17 24 26 25 28 28 28
3 2 3 6 3 5 9 5 3 2 2 2 2 4 4 6 7 7 3 4 5 4 3 5 10 4 5 2 5 4 4 6 3 7 8 5 7 5 21 33 30 31 29 29 27
4 4 4 6 4 8 7 2 2 1 1 1 1 3 3 3 3 3 5 5 2 5 2 3 3 9 5 2 4 2 4 3 5 3 5 8 7 4 23 27 27 29 28 26 25
2 3 4 3 7 4 3 5 4 1 4 2 0 5 4 3 3 3 4 5 5 4 4 4 2 4 9 7 5 4 1 3 3 4 5 4 9 5 24 24 25 26 25 24 25
3 1 4 4 5 3 1 3 2 1 0 1 2 2 2 2 4 4 4 3 9 8 1 3 3 6 11 6 4 2 3 7 9 6 5 5 11 18 23 26 26 26 26 24 23
3 3 5 6 3 7 4 1 1 1 2 1 2 2 4 4 4 6 7 6 14 6 7 5 2 7 6 14 13 11 3 11 7 4 11 10 26 31 29 31 34 31 25 24 22
4 0 2 2 3 4 4 2 1 1 2 1 1 3 5 2 5 4 3 8 5 5 7 4 3 5 16 17 12 2 2 12 11 10 5 16 22 24 30 30 27 28 22 25 24
4 5 4 2 2 4 2 3 3 1 4 2 2 6 4 5 8 10 3 1 7 6 6 2 5 14 10 1 7 6 8 15 14 9 7 13 22 23 26 26 24 21 28 27 26
0 3 6 3 3 4 3 4 5 4 3 3 2 2 4 6 6 13 11 10 10 3 3 3 4 5 6 9 4 3 2 10 15 6 7 19 27 30 32 30 30 23 27 26 25
Wind_Direction
26 23 19 17 16 9 7 8 11 18 26 26 20 44 24 50 39 38 42 5 2 358 346 325 344 337 347 327 318 129 244 236 288 4 0 355 360 347 338 352 321 7 327 323 328
26 22 19 17 14 10 7 6 10 13 28 27 33 57 50 16 83 40 12 2 360 1 348 346 342 336 3 5 349 170 221 71 45 18 352 340 343 333 327 335 325 325 328 329 328
25 21 17 15 15 12 12 12 30 33 50 43 44 55 33 358 71 347 354 360 355 0 343 324 341 29 26 14 9 333 351 347 357 351 336 326 314 326 323 314 341 310 321 332 337
22 19 17 15 15 15 15 27 54 64 55 41 28 35 23 33 70 309 357 355 350 343 352 350 10 22 39 12 6 351 311 352 314 324 325 318 311 316 307 286 317 326 320 323 326
18 14 13 12 15 16 15 18 45 40 30 28 35 46 59 44 66 306 355 339 330 339 355 10 38 13 10 328 334 175 296 321 305 306 322 331 302 259 282 302 317 316 313 316 320
15 11 9 8 10 14 11 9 8 5 10 22 34 44 66 66 284 327 345 322 341 354 339 16 350 283 244 307 329 293 298 297 303 334 336 318 297 274 349 309 313 311 305 302 301
13 8 5 3 6 6 7 351 3 6 354 2 18 77 66 65 325 338 323 326 315 291 290 264 298 35 316 331 285 261 301 330 299 347 312 336 302 281 279 292 292 295 300 298 288
9 5 2 360 6 0 352 331 343 356 329 328 34 70 70 230 3 359 329 345 339 345 269 286 248 139 44 298 342 2 42 336 306 299 246 29 288 310 290 294 284 283 283 290 292
6 3 1 1 4 355 340 317 343 349 8 354 47 88 1 336 355 327 359 333 320 332 358 31 121 82 21 25 9 19 287 303 308 268 296 304 291 306 306 293 286 276 271 279 288
4 0 360 359 359 351 343 85 355 13 359 30 64 56 21 310 313 318 310 337 354 345 11 21 36 63 17 38 312 299 312 290 299 296 309 294 283 292 296 291 280 273 272 272 281
1 359 359 358 359 356 15 30 27 2 29 88 141 119 265 292 338 340 326 348 12 37 19 341 68 43 327 278 247 265 261 287 289 299 294 290 292 291 298 292 291 305 307 287 276
359 358 355 353 29 15 57 70 69 158 84 46 67 242 277 292 329 338 8 21 25 9 350 14 115 306 337 324 316 313 297 298 289 301 304 304 294 296 300 70 44 359 339 337 331
357 356 356 345 108 47 69 47 335 10 89 40 43 342 316 347 16 327 13 356 33 15 352 162 269 326 331 322 330 316 294 304 300 314 313 307 313 41 336 44 9 354 334 327 330
355 356 3 28 60 23 55 318 343 90 91 335 353 350 352 340 18 21 357 32 6 349 338 289 305 321 329 352 337 314 321 304 301 324 290 67 277 341 338 349 357 341 334 326 325
351 351 6 39 140 47 296 317 318 71 52 328 348 342 332 50 285 353 19 12 36 323 71 267 304 332 336 343 325 282 319 304 303 291 46 331 54 259 332 348 342 335 329 323 320
349 351 360 25 46 263 319 6 55 46 323 339 351 352 7 356 347 338 28 13 39 356 304 256 268 248 354 343 315 331 313 308 343 53 11 250 80 278 358 323 323 328 326 323 316
348 349 12 65 302 331 43 48 38 75 349 336 329 352 343 337 350 360 6 9 44 4 352 324 318 324 51 327 305 1 350 338 357 9 253 315 337 244 200 348 338 328 323 317 311
341 1 335 132 295 110 66 53 63 178 342 356 329 323 34 6 2 348 12 10 26 62 320 13 331 20 355 176 240 344 72 2 307 318 295 299 238 260 320 342 352 329 324 319 313
358 6 13 288 297 92 75 49 165 228 268 315 316 351 336 8 11 4 20 254 239 118 60 348 264 307 315 344 117 340 18 290 263 263 283 254 290 335 354 345 331 325 324 318 312
71 42 295 322 100 67 66 109 191 215 300 12 34 50 322 327 5 26 336 245 314 214 147 257 292 279 325 86 42 88 312 346 350 308 306 290 302 267 343 336 333 327 322 316 312
58 56 265 340 60 51 88 133 152 289 69 162 274 303 258 294 288 282 251 284 248 296 232 135 151 294 346 3 227 355 6 302 255 249 288 310 287 240 349 329 324 319 314 312 314
87 52 309 25 53 49 81 142 163 263 28 347 245 178 201 299 288 280 260 218 10 329 325 233 213 294 288 309 158 143 261 268 299 312 269 265 272 310 340 326 322 316 315 314 318
80 291 327 66 81 59 144 88 164 124 71 58 330 81 220 272 333 235 292 292 2 335 296 287 317 314 340 354 294 53 47 326 289 267 259 320 283 326 324 326 324 320 324 325 324
76 40 353 40 65 120 125 99 95 57 109 315 253 58 344 312 222 282 297 305 330 303 325 23 169 170 240 261 281 295 2 342 350 288 304 275 305 322 330 333 327 328 331 332 327
37 87 181 22 29 101 103 158 117 354 24 252 14 137 176 275 299 236 275 324 301 309 343 97 241 240 281 275 274 184 279 344 0 304 274 303 312 324 327 324 323 316 329 332 335
115 125 6 120 117 97 38 217 170 282 137 270 189 289 231 200 199 285 278 168 255 316 341 337 266 315 295 292 170 175 2 3 345 313 275 291 315 327 319 317 324 328 335 344 345
74 46 100 263 109 91 205 182 194 145 284 217 228 326 275 247 236 261 244 243 245 307 298 291 306 337 271 316 344 9 306 341 323 320 299 345 325 325 328 331 329 333 337 341 344